Regional Weather Roundup
Issued by NWS

Home | Current Version | Previous Version | Graphics & Text | Print | Product List | Glossary On
Versions: 1 2 3 4 5 6 7 8 9 10 11 12 13 14 15 16 17 18 19 20 21 22 23 24 25 26 27 28
000
ASUS45 KBOU 160510
RWRCO

WEATHER ROUNDUP FOR COLORADO
NATIONAL WEATHER SERVICE DENVER/BOULDER CO
1000 PM MST FRI DEC 15 2017

NOTE: "FAIR" INDICATES FEW OR NO CLOUDS BELOW 12000 FEET WITH NO
SIGNIFICANT WEATHER AND/OR OBSTRUCTIONS TO VISIBILITY.

COZ001>005-013-030-031-160600-
...NORTHWEST COLORADO...

CITY           SKY/WX    TMP DP  RH WIND       PRES   REMARKS
CRAIG          FAIR       9   5  84 CALM      30.04S
HAYDEN         FAIR      24  12  60 SE14      30.04F WCI  12
MEEKER         FAIR      19   5  54 NE5       30.03F WCI  12
RABBIT EARS PA FAIR      25   1  36 W7        30.06F WCI  17
STEAMBOAT SPGS FAIR      19  11  71 CALM      30.04S
WALDEN         FAIR      30   3  31 S14       30.00S WCI  20
$$

COZ006>008-011-160600-
...WEST CENTRAL VALLEYS...

CITY           SKY/WX    TMP DP  RH WIND       PRES   REMARKS
GRAND JUNCTION FAIR      27   8  44 E3        30.08F
MONTROSE       FAIR      20   8  60 SE7       30.10F WCI  11
EAGLE          FAIR      15   9  76 E5        30.11F WCI   8
RIFLE          FAIR      18   4  54 SE5       30.09F WCI  11
DELTA          FAIR      27   2  35 CALM      30.10S
NUCLA          FAIR      28  -6  22 SE8       30.12S WCI  20
$$

COZ017>023-064>068-160600-
...SOUTHWEST COLORADO...

CITY           SKY/WX    TMP DP  RH WIND       PRES   REMARKS
DURANGO        FAIR      20  12  71 CALM      30.11F
CORTEZ         FAIR      16   1  51 E3        30.11F
PAGOSA SPRINGS FAIR      21   9  61 CALM      30.12S
TELLURIDE      FAIR      30  -3  24 SE6       30.12F WCI  24
WOLF CREEK PAS FAIR      32   0  25 CALM      30.25S
$$

COZ009-010-012-014-032>034-037-058>063-160600-
...CENTRAL COLORADO...

CITY           SKY/WX    TMP DP  RH WIND       PRES   REMARKS
ASPEN          FAIR      18   7  62 S6        30.06F WCI  10
BUENA VISTA    FAIR      20  10  64 W6        30.05S WCI  12
COPPER MTN     NOT AVBL
BERTHOUD PASS  FAIR      27  14  59 W29G44    30.11F WCI  11
COTTONWOOD PAS FAIR      41   3  20 N6        30.07S
GUNNISON       FAIR      11   4  73 CALM      30.14S
KREMMLING      FAIR      14   9  79 CALM      30.09S
LEADVILLE      FAIR      15   2  56 NE7       30.06F WCI   5
MONARCH PASS   FAIR      23  -4  30 W35       30.23S WCI   4
SALIDA         FAIR      30   6  35 N3        30.09S
SUNLIGHT       FAIR      25  -6  26 SW13G20   30.15S WCI  13
WILKERSON PASS FAIR      32   1  27 NW13G24   30.12S WCI  22
$$

COZ069>075-160600-
...SAN LUIS VALLEY/SANGRE DE CRISTO MOUNTAINS...

CITY           SKY/WX    TMP DP  RH WIND       PRES   REMARKS
ALAMOSA        FAIR       9   4  80 W5        30.11F WCI   1
DEL NORTE      FAIR      17   8  67 W10       30.12F WCI   4
LA VETA PASS   FAIR      27   0  31 SW32        N/A  WCI  10
SAGUACHE       FAIR      18   9  68 NW8       30.12F WCI   7
$$

COZ035-036-038>040-160600-
...NORTHERN COLORADO FRONT RANGE...

CITY           SKY/WX    TMP DP  RH WIND       PRES   REMARKS
DENVER INTL AP MOCLDY    44  11  26 SW14      29.83F
DMNS CITY PARK NOT AVBL
AURORA         MOCLDY    38  12  34 S10       29.84F
FRONT RANGE AP FAIR      47  13  26 SW15      29.84F
ERIE MUNI ARPT FAIR      36  12  37 S3        29.87F
BOULDER MUN AP FAIR      50  10  20 SE3       29.82S
CENTENNIAL     MOCLDY    41  14  33 SW5       29.84F
BROOMFIELD     FAIR      55   7  14 W21G32    29.84F
FORT COLLINS   FAIR      33  23  66 S8        29.81F WCI  26
LONGMONT       FAIR      35  21  56 E5        29.83F WCI  31
$$

COZ041-046-047-076>085-087-088-160600-
...PIKES PEAK/PALMER DIVIDE AND SOUTHERN FOOTHILLS...

CITY           SKY/WX    TMP DP  RH WIND       PRES   REMARKS
COLO. SPRINGS  FAIR      34  10  37 N12       29.88F WCI  25
A. F. ACADEMY  FAIR      31   8  38 CALM      29.88F
SCHRIEVER AFB  FAIR      41   7  24 N7        29.88F
CHEYENNE MTN   FAIR      45  10  23 CALM      29.85F
ELLICOTT         N/A    N/A N/A N/A NE7       29.86F
FALCON         FAIR      40   6  25 NW10      29.90F
FORT CARSON    FAIR      34  14  44 N10       29.85F WCI  26
LIMON          FAIR      21  11  65 N8        29.86F WCI  11
MONUMENT HILL  FAIR      37  10  32 SW12      29.91F
CANON CITY     FAIR      46  10  23 W13       29.88S
WALSENBURG     NOT AVBL
TRINIDAD       FAIR      40  11  30 W15       29.90F
$$

COZ042>045-048>051-090-091-160600-
...NORTHEAST COLORADO...

CITY           SKY/WX    TMP DP  RH WIND       PRES   REMARKS
GREELEY ARPT   FAIR      27  18  69 CALM      29.82F
AKRON          FAIR      42  11  28 SW16      29.80F
BURLINGTON     FAIR      37  14  38 SW10      29.82F
WRAY           FAIR      36   9  32 W7        29.80F
YUMA           FAIR      28  10  47 W12       29.79F WCI  18
STERLING       FAIR      25  12  58 W3        29.79F
HOLYOKE        FAIR      28  12  50 W9        29.78F WCI  20
FORT MORGAN    FAIR      27  17  65 W9        29.81S WCI  18
$$

COZ086-089-092>099-160600-
...SOUTHEAST COLORADO...

CITY           SKY/WX    TMP DP  RH WIND       PRES   REMARKS
PUEBLO         FAIR      30  13  49 MISG      29.86S
LA JUNTA       FAIR      35  13  40 W7        29.85S WCI  29
LAMAR          FAIR      29  16  58 W5        29.83S WCI  24
SPRINGFIELD      N/A     33  14  45 SW7       29.87F WCI  27
$$




USA.gov is the U.S. government's official web portal to all federal, state and local government web resources and services.